Weather Service Report


114 
ASUS45 KPSR 300010
RWRAZ 

ARIZONA HOURLY REGIONAL WEATHER ROUNDUP
NATIONAL WEATHER SERVICE PHOENIX AZ
500 PM MST SAT AUG 29 2015

NOTE: FAIR INDICATES FEW OR NO CLOUDS BELOW 12,000 FEET WITH NO
SIGNIFICANT WEATHER AND/OR OBSTRUCTIONS TO VISIBILITY.

AZZ001>003-036-300100-
NORTHWEST ARIZONA
  
CITY           SKY/WX    TMP DP  RH WIND       PRES   REMARKS
BULLHEAD CITY  SUNNY    111  46  11 S17G25    29.69F HX 107           
KINGMAN        PTSUNNY  100  47  16 SW14G22   29.95F                  
6HR MIN TEMP:  90; 6HR MAX TEMP: 101; 6HR PCP: TRACE;                

$$

AZZ004>008-015-016-018-300100-
NORTH CENTRAL ARIZONA
  
CITY           SKY/WX    TMP DP  RH WIND       PRES   REMARKS
GRAND CANYON   PTSUNNY   75  49  39 W9        30.27R                  
6HR MIN TEMP:  72; 6HR MAX TEMP:  87;                                

WILLIAMS       MOSUNNY   77  46  33 SW8G18    30.33R                  
PRESCOTT       PTSUNNY   76  59  55 S3        30.14F                  
6HR MIN TEMP:  75; 6HR MAX TEMP:  90; 6HR PCP: TRACE;                

FLAGSTAFF      MOSUNNY   76  48  37 S13       30.30R                  
6HR MIN TEMP:  76; 6HR MAX TEMP:  82;                                

PAYSON         CLOUDY    82  54  36 NW5       30.15F                  
PAGE           SUNNY     97  37  12 NE7       30.00F                  
6HR MIN TEMP:  86; 6HR MAX TEMP:  99;                                

$$

AZZ009>014-017-300100-
NORTHEAST ARIZONA
  
CITY           SKY/WX    TMP DP  RH WIND       PRES   REMARKS
WINSLOW        SUNNY     93  44  18 W12       30.09F                  
6HR MIN TEMP:  83; 6HR MAX TEMP:  96;                                

SAINT JOHNS    MOSUNNY   85  46  25 S8        30.18F                  
6HR MIN TEMP:  82; 6HR MAX TEMP:  90;                                

WINDOW ROCK    CLOUDY    81  41  24 NW6       30.25F                  
6HR MIN TEMP:  80; 6HR MAX TEMP:  90; 6HR PCP: TRACE;                

SHOW LOW       MOSUNNY   81  45  28 S14       30.24S                  
$$

AZZ023-300100-
GREATER PHOENIX AREA
  
CITY           SKY/WX    TMP DP  RH WIND       PRES   REMARKS
PHOENIX        MOSUNNY  111  54  15 W9        29.74F HX 109           
6HR MIN TEMP: 100; 6HR MAX TEMP: 111;                                

BUCKEYE        SUNNY    108  55  18 S7        29.74F HX 106           
GLENDALE       MOSUNNY  109  52  15 S6G17     29.76F HX 107           
LUKE AFB       SUNNY    108  55  17 SW5       29.73F HX 106           
6HR MIN TEMP: 100; 6HR MAX TEMP: 109;                                

DEER VALLEY    SUNNY    106  51  16 W7        29.77F HX 103           
6HR MIN TEMP:  99; 6HR MAX TEMP: 107;                                

SCOTTSDALE     MOSUNNY  107  49  14 W6        29.79F HX 104           
6HR MIN TEMP: 100; 6HR MAX TEMP: 109;                                

MESA-FALCON    MOSUNNY  108  54  16 S10       29.76F HX 106           
MESA-GATEWAY   MOSUNNY  106  55  18 NW5       29.79F HX 105           
CHANDLER       PTSUNNY  108  54  16 SW12      29.76F HX 106           
$$

AZZ027-028-300100-
SOUTHWEST MARICOPA COUNTY AND PINAL COUNTY
  
CITY           SKY/WX    TMP DP  RH WIND       PRES   REMARKS
CASA GRANDE    SUNNY    108  55  18 W8G21     29.78F HX 106           
6HR MIN TEMP:  99; 6HR MAX TEMP: 108;                                

GILA BEND      FAIR     108  55  17 S5        29.73F HX 106           
6HR MIN TEMP:  98; 6HR MAX TEMP: 110;                                

$$

AZZ503-504-507>509-300100-
SOUTHEAST ARIZONA
  
CITY           SKY/WX    TMP DP  RH WIND       PRES   REMARKS
TUCSON         PTSUNNY   90  59  35 SW14G23   29.96R THUNDER          
6HR MIN TEMP:  90; 6HR MAX TEMP: 105;                                

DAVIS-MONTHAN  TSTM      89  60  38 SE8       29.94R                  
6HR MIN TEMP:  86; 6HR MAX TEMP: 103; 6HR PCP:  0.02;                

RYAN FIELD     MOSUNNY   93  57  29 SE18G36   29.90R                  
NOGALES        CLOUDY    87  59  38 E8G18     30.06S                  
6HR MIN TEMP:  74; 6HR MAX TEMP:  99; 6HR PCP:  0.19;                

SIERRA VISTA   CLOUDY    79  56  45 SW15G26   30.13F                  
6HR MIN TEMP:  27; 6HR MAX TEMP:  93;                                

DOUGLAS          N/A    N/A N/A N/A MISG      30.07S                  
6HR MIN TEMP:  68; 6HR MAX TEMP:  94; 6HR PCP:  0.65;                

SAFFORD        CLOUDY    97  52  21 N20G28    29.94S THUNDER          
6HR MIN TEMP:  90; 6HR MAX TEMP: 100;                                

$$

AZZ020-021-025-026-031-300100-
SOUTHWEST ARIZONA
  
CITY           SKY/WX    TMP DP  RH WIND       PRES   REMARKS
YUMA           PTSUNNY  112  59  18 SW12      29.68F HX 113           
6HR MIN TEMP: 103; 6HR MAX TEMP: 113;                                

$$

CAZ031-033-041-043-047-048-061-300100-
SOUTHERN CALIFORNIA
  
CITY           SKY/WX    TMP DP  RH WIND       PRES   REMARKS
DOWNTOWN L.A.  SUNNY     85  59  41 VRB5      29.83F                  
6HR MIN TEMP:  85; 6HR MAX TEMP:  94;                                

L.A. AIRPORT   MOSUNNY   80  67  64 W15       29.84F                  
6HR MIN TEMP:  80; 6HR MAX TEMP:  84;                                

SAN DIEGO      MOSUNNY   84  63  49 NW9       29.86S                  
6HR MIN TEMP:  83; 6HR MAX TEMP:  87;                                

BURBANK        SUNNY     94  56  27 S7        29.84F                  
6HR MIN TEMP:  90; 6HR MAX TEMP:  99;                                

ONTARIO        MOSUNNY   97  53  22 SW15      29.84F                  
6HR MIN TEMP:  90; 6HR MAX TEMP: 102;                                

RIVERSIDE      SUNNY     98  51  20 W15G23    29.83F                  
6HR MIN TEMP:  90; 6HR MAX TEMP: 102;                                

PALM SPRINGS   MOSUNNY  111  47  12 NW17G28   29.71F HX 107           
6HR MIN TEMP: 107; 6HR MAX TEMP: 115;                                

EL CENTRO NAS  SUNNY    113  52  13 S10       29.66F HX 110           
6HR MIN TEMP: 107; 6HR MAX TEMP: 114;                                

IMPERIAL       MOSUNNY  114  54  14 E14       29.64F HX 112           
6HR MIN TEMP: 107; 6HR MAX TEMP: 115;                                

BLYTHE         SUNNY    112  53  14 S9        29.68F HX 110           
6HR MIN TEMP: 105; 6HR MAX TEMP: 113;                                

NEEDLES        MOSUNNY  112  44  10 W7        29.71F HX 107           
6HR MIN TEMP: 106; 6HR MAX TEMP: 115;                                

$$

NVZ020-UTZ003-300100-
SOUTHERN NEVADA-UTAH
  
CITY           SKY/WX    TMP DP  RH WIND       PRES   REMARKS
LAS VEGAS      MOSUNNY  105  43  12 SW17G23   29.76F HX 100           
6HR MIN TEMP: 100; 6HR MAX TEMP: 107;                                

SALT LAKE CITY PTSUNNY   95  39  14 S15       29.90F                  
6HR MIN TEMP:  92; 6HR MAX TEMP:  96;                                

$$

NMZ009-TXZ055-300100-
NEW MEXICO-WEST TEXAS
  
CITY           SKY/WX    TMP DP  RH WIND       PRES   REMARKS
ALBUQUERQUE    PTSUNNY   84  45  25 E17       30.18F                  
6HR MIN TEMP:  78; 6HR MAX TEMP:  89;                                

EL PASO        MOSUNNY   90  55  30 SE10G17   30.05S                  
6HR MIN TEMP:  84; 6HR MAX TEMP:  93;                                

$$


........................KEY........................
SKY/WX - SKY CONDITION/WEATHER
TMP    - TEMPERATURE IN FAHRENHEIT
DP     - DEW POINT IN FAHRENHEIT
RH     - RELATIVE HUMIDITY IN PERCENT
WIND   - DIRECTION AND SPEED IN MILES PER HOUR (MPH)
VRB    - VARIABLE WIND DIRECTION
PRES   - MEAN SEA LEVEL PRESSURE IN INCHES OF MERCURY
         F - FALLING PRESSURE   R - RISING PRESSURE
         S - STEADY PRESSURE
VSB    - VISIBILITY IN MILES
HX     - HEAT INDEX IN FAHRENHEIT
WCI    - WIND CHILL INDEX IN FAHRENHEIT
TC     - TEMPERATURE IN CELSIUS WHICH IS ALSO KNOWN AS
         TEMPERATURE IN CENTIGRADE
AFB    - AIR FORCE BASE
         LUKE AFB IS LUKE AIR FORCE BASE
         DAVIS-MONTHAN IS DAVIS-MONTHAN AIR FORCE BASE
NAS    - NAVAL AIR STATION
         EL CENTRO NAS IS EL CENTRO NAVAL AIR STATION
N/A    - NOT AVAILABLE


Return to Home page


Western Regional Climate Center, wrcc@dri.edu